Powrót do katalogu

ZK-1A R/B

AktywnyPO
NORAD 66411·ROCKET BODY·🇨🇳 China

Wystrzelony Nov 9, 2025 z Jiuquan Satellite Launch Center

Loading…

Następne Przeloty (najbliższe 24 godziny)

TLE

ŚwieżeSource: Space-Track

Epoka: Sep 14, 2026, 00:42 UTC

1 66411U 25256C   26257.02929604  .00010332  00000-0  38619-3 0  9991
2 66411  98.2985 351.3951 0204506  43.6731 318.0475 15.10165715 46492

Śledź ZK-1A R/B w czasie rzeczywistym z AllMySat

Download on the App Store